Regional Weather Roundup
Issued by NWS

Home | Current Version | Previous Version | Text Only | Print | Product List | Glossary On
Versions: 1 2 3 4 5 6 7 8 9 10 11 12 13 14 15 16 17 18 19 20 21 22 23 24 25 26 27
000
ASUS45 KREV 310610
RWRNV
NEVADA REGIONAL WEATHER ROUNDUP
NATIONAL WEATHER SERVICE RENO NV
1100 PM PDT THU OCT 30 2014

NOTE: "FAIR" INDICATES FEW OR NO CLOUDS BELOW 12,000 FEET WITH NO
SIGNIFICANT WEATHER AND/OR OBSTRUCTIONS TO VISIBILITY.

NVZ001-003-004-310700-
WESTERN NEVADA

CITY           SKY/WX    TMP DP  RH WIND       PRES   REMARKS
RENO           MOCLDY    53  35  50 CALM      29.95F
6HR MIN TEMP:  52; 6HR MAX TEMP:  66;

CARSON CITY    FAIR      46  28  49 CALM      29.98F
MINDEN         FAIR      55  25  30 S12       29.99
SLIDE MTN        N/A     37  23  56 SW18        N/A
FALLON         CLOUDY    48  27  44 SE6       29.93R
6HR MIN TEMP:  48; 6HR MAX TEMP:  69;

LOVELOCK       CLOUDY    46  24  42 CALM      29.92S
6HR MIN TEMP:  45; 6HR MAX TEMP:  69;

HAWTHORNE      CLEAR     63  18  17 CALM      29.96R
$$

NVZ002-CAZ072-073-310700-
NORTHERN AND CENTRAL SIERRA

CITY           SKY/WX    TMP DP  RH WIND       PRES   REMARKS
S. LAKE TAHOE  PTCLDY    52  24  33 SW6       30.04S
6HR MIN TEMP:  50; 6HR MAX TEMP:  63;

TRUCKEE        MOCLDY    52  27  37 S13G18    30.03F
SQUAW VLY 8000 NOT AVBL
SUSANVILLE     CLEAR     57  34  41 SE6       29.93
BLUE CANYON    PTCLDY    54  29  38 SE7       30.02F
MAMMOTH LAKES  FAIR      39  18  41 CALM      30.12F
BRIDGEPORT     FAIR      47  18  31 CALM      30.06S
$$

NVZ030-031-036-310700-
NORTHERN NEVADA

CITY           SKY/WX    TMP DP  RH WIND       PRES   REMARKS
ELKO           MOCLDY    47  20  34 E7        30.00F
6HR MIN TEMP:  47; 6HR MAX TEMP:  68;

WINNEMUCCA     CLOUDY    45  22  40 SE7       29.93F
6HR MIN TEMP:  43; 6HR MAX TEMP:  67;

WENDOVER       CLOUDY    41  25  52 CALM      30.08F
$$

NVZ035-037-310700-
CENTRAL NEVADA

CITY           SKY/WX    TMP DP  RH WIND       PRES   REMARKS
ELY            MOCLDY    45  21  38 S12       30.14S
6HR MIN TEMP:  43; 6HR MAX TEMP:  67;

EUREKA           N/A     53  19  26 CALM      30.07S
6HR MIN TEMP:  49; 6HR MAX TEMP:  68;

$$

NVZ013-014-310700-
SOUTH CENTRAL NEVADA

CITY           SKY/WX    TMP DP  RH WIND       PRES   REMARKS
TONOPAH        CLOUDY    56  20  24 SE12      30.07F
6HR MIN TEMP:  55; 6HR MAX TEMP:  69;

$$

NVZ017-020-022-310700-
SOUTHERN NEVADA

CITY           SKY/WX    TMP DP  RH WIND       PRES   REMARKS
LAS VEGAS      MOCLDY    69  28  21 SW8       29.93F
6HR MIN TEMP:  69; 6HR MAX TEMP:  81;

N. LAS VEGAS   MOCLDY    66  31  27 N3        29.96F
6HR MIN TEMP:  66; 6HR MAX TEMP:  81;

NELLIS AFB     MOCLDY    65  28  24 NE6       29.96F
6HR MIN TEMP:  64; 6HR MAX TEMP:  81;

HENDERSON      MOCLDY    64  30  28 S5        29.99F
6HR MIN TEMP:  64; 6HR MAX TEMP:  79;

MERCURY        NOT AVBL
$$



USA.gov is the U.S. government's official web portal to all federal, state and local government web resources and services.